sat.trackr.live / text

‹ back to catalog

STARLINK-5694

NORAD 55481 · 2023-015AJ

PAYLOAD ACTIVE UNKNOWN

§ Identity

Operator
Country
US
Launch date
2023-02-02
Launch site
AFETR
Launch vehicle
Mass (kg)
RCS (m²)

Purposes: comms

External: N2YO · Heavens-Above · Gunter

§ Orbital elements

Epoch: 2026-09-20T20:49:18.168960Z

Period
94.27 min
Inclination
43.0042°
Eccentricity
0.0001164
Mean motion
15.27575102 rev/d
Perigee alt
482.3 km
Apogee alt
483.9 km
Semi-major
6,861.2 km
B*
-5.1484e-7
RAAN
317.6087°
Arg perigee
294.9504°
Mean anomaly
65.1226°
Rev number
20,044

§ Raw data

STARLINK-56941 55481U 23015AJ  26263.86757140 -.00000276  00000+0 -51484-6 0  99952 55481  43.0042 317.6087 0001164 294.9504  65.1226 15.27575102200442

JSON: /api/v1/satellites/55481 · /tle

For live sub-satellite position, see the globe view (requires WebGL).

§ Visibility from observer

Set your observer location to see the next 7 days of passes ≥ 10°. The values pass through the URL so the page stays shareable.

No JS? Fill the form by hand. The geolocation button needs JavaScript.